EN

Hourly Weather Ballycastle

Today, 4 December, Friday

Time Temperature Precipitation Wind Pressure Humidity
00:00 +1°C° 0 mm 6 mps 734 mmHg 81%
01:00 0°C° 0 mm 7 mps 734 mmHg 81%
02:00 +2°C° 0 mm 7 mps 733 mmHg 80%
03:00 +1°C° 0 mm 8 mps 733 mmHg 79%
04:00 +1°C° 0 mm 9 mps 733 mmHg 77%
05:00 +2°C° 0 mm 10 mps 733 mmHg 74%
06:00 +2°C° 0 mm 10 mps 733 mmHg 72%
07:00 +2°C° 0.8 mm 12 mps 733 mmHg 76%
08:00 +1°C° 0.8 mm 14 mps 733 mmHg 80%
09:00 0°C° 0.8 mm 15 mps 733 mmHg 85%
10:00 +1°C° 1 mm 14 mps 733 mmHg 85%
11:00 +3°C° 1 mm 14 mps 733 mmHg 84%
12:00 +3°C° 1 mm 13 mps 733 mmHg 84%
13:00 +3°C° 0.9 mm 13 mps 734 mmHg 86%
14:00 +3°C° 0.9 mm 13 mps 734 mmHg 87%
15:00 +4°C° 0.9 mm 12 mps 734 mmHg 89%
16:00 +4°C° 0.1 mm 13 mps 735 mmHg 85%
17:00 +4°C° 0.1 mm 13 mps 735 mmHg 82%
18:00 +5°C° 0.1 mm 14 mps 736 mmHg 79%
19:00 +5°C° 0.1 mm 14 mps 737 mmHg 78%
20:00 +5°C° 0.1 mm 13 mps 737 mmHg 78%
21:00 +5°C° 0.1 mm 13 mps 738 mmHg 78%
22:00 +4°C° 0.2 mm 12 mps 738 mmHg 78%
23:00 +4°C° 0.2 mm 11 mps 739 mmHg 79%

Tomorrow, 5 December, Saturday

Time Temperature Precipitation Wind Pressure Humidity
00:00 +5°C° 0.2 mm 10 mps 739 mmHg 79%
01:00 +5°C° 0 mm 10 mps 739 mmHg 80%
02:00 +5°C° 0 mm 9 mps 740 mmHg 81%
03:00 +5°C° 0 mm 9 mps 740 mmHg 82%
04:00 +5°C° 0.1 mm 9 mps 740 mmHg 82%
05:00 +5°C° 0.1 mm 8 mps 741 mmHg 82%
06:00 +5°C° 0.1 mm 8 mps 741 mmHg 82%
07:00 +5°C° 0.1 mm 8 mps 742 mmHg 82%
08:00 +4°C° 0.1 mm 8 mps 743 mmHg 83%
09:00 +4°C° 0.1 mm 8 mps 744 mmHg 84%
10:00 +4°C° 0.1 mm 7 mps 744 mmHg 83%
11:00 +5°C° 0.1 mm 7 mps 745 mmHg 82%
12:00 +5°C° 0.1 mm 6 mps 746 mmHg 81%
13:00 +6°C° 0 mm 5 mps 746 mmHg 81%
14:00 +5°C° 0 mm 5 mps 746 mmHg 82%
15:00 +5°C° 0 mm 4 mps 746 mmHg 82%
16:00 +5°C° 0 mm 4 mps 747 mmHg 83%
17:00 +4°C° 0 mm 4 mps 747 mmHg 84%
18:00 +4°C° 0 mm 3 mps 748 mmHg 85%
19:00 +4°C° 0 mm 3 mps 748 mmHg 85%
20:00 +4°C° 0 mm 3 mps 748 mmHg 85%
21:00 +4°C° 0 mm 3 mps 748 mmHg 85%
22:00 +4°C° 0 mm 3 mps 749 mmHg 85%
23:00 +4°C° 0 mm 2 mps 749 mmHg 85%

Day after tomorrow, 6 December, Sunday

Time Temperature Precipitation Wind Pressure Humidity
00:00 +4°C° 0 mm 2 mps 749 mmHg 85%
01:00 +3°C° 0 mm 3 mps 749 mmHg 85%
02:00 +3°C° 0 mm 3 mps 749 mmHg 85%
03:00 +3°C° 0 mm 3 mps 749 mmHg 86%
04:00 +3°C° 0 mm 3 mps 749 mmHg 86%
05:00 +3°C° 0 mm 3 mps 749 mmHg 85%
06:00 +3°C° 0 mm 3 mps 749 mmHg 85%
07:00 +4°C° 0 mm 2 mps 749 mmHg 85%
08:00 +4°C° 0 mm 2 mps 749 mmHg 86%
09:00 +5°C° 0 mm 1 mps 749 mmHg 86%
10:00 +5°C° 0 mm 2 mps 750 mmHg 85%
11:00 +5°C° 0 mm 2 mps 750 mmHg 85%
12:00 +6°C° 0 mm 2 mps 750 mmHg 84%
13:00 +6°C° 0 mm 2 mps 750 mmHg 84%
14:00 +6°C° 0 mm 2 mps 750 mmHg 84%
15:00 +5°C° 0 mm 3 mps 749 mmHg 85%
16:00 +6°C° 0 mm 2 mps 749 mmHg 85%
17:00 +6°C° 0 mm 2 mps 750 mmHg 85%
18:00 +6°C° 0 mm 2 mps 750 mmHg 85%
19:00 +6°C° 0.1 mm 2 mps 750 mmHg 85%
20:00 +6°C° 0.1 mm 2 mps 750 mmHg 85%
21:00 +5°C° 0.1 mm 2 mps 750 mmHg 85%
22:00 +5°C° 0.1 mm 2 mps 749 mmHg 86%
23:00 +5°C° 0.1 mm 2 mps 749 mmHg 87%

7 December, Monday

Time Temperature Precipitation Wind Pressure Humidity
00:00 +3°C° 0.1 mm 3 mps 749 mmHg 88%
01:00 +4°C° 0 mm 2 mps 749 mmHg 88%
02:00 +4°C° 0 mm 2 mps 748 mmHg 88%
03:00 +4°C° 0 mm 2 mps 748 mmHg 88%
04:00 +3°C° 0 mm 2 mps 748 mmHg 88%
05:00 +3°C° 0 mm 2 mps 748 mmHg 87%
06:00 +3°C° 0 mm 2 mps 748 mmHg 86%
07:00 +3°C° 0 mm 2 mps 747 mmHg 87%
08:00 +3°C° 0 mm 1 mps 747 mmHg 87%
09:00 +3°C° 0 mm 1 mps 747 mmHg 87%
10:00 +4°C° 0 mm 1 mps 747 mmHg 86%
11:00 +5°C° 0 mm 1 mps 747 mmHg 84%
12:00 +6°C° 0 mm 1 mps 747 mmHg 82%
13:00 +5°C° 0 mm 1 mps 747 mmHg 83%
14:00 +5°C° 0 mm 1 mps 747 mmHg 85%
15:00 +5°C° 0 mm 1 mps 746 mmHg 86%
16:00 +5°C° 0 mm 1 mps 746 mmHg 86%
17:00 +4°C° 0 mm 2 mps 747 mmHg 87%
18:00 +3°C° 0 mm 2 mps 747 mmHg 87%
19:00 +4°C° 0 mm 2 mps 747 mmHg 87%
20:00 +4°C° 0 mm 2 mps 747 mmHg 87%
21:00 +3°C° 0 mm 3 mps 746 mmHg 87%
22:00 +3°C° 0 mm 3 mps 746 mmHg 87%
23:00 +3°C° 0 mm 4 mps 746 mmHg 87%

8 December, Tuesday

Time Temperature Precipitation Wind Pressure Humidity
00:00 +2°C° 0 mm 5 mps 746 mmHg 86%
01:00 +3°C° 0 mm 6 mps 745 mmHg 86%
02:00 +3°C° 0 mm 7 mps 745 mmHg 85%
03:00 +2°C° 0 mm 8 mps 744 mmHg 84%
04:00 +3°C° 0.1 mm 9 mps 744 mmHg 84%
05:00 +5°C° 0.1 mm 10 mps 744 mmHg 84%
06:00 +4°C° 0.1 mm 11 mps 743 mmHg 84%
07:00 +4°C° 0.7 mm 11 mps 744 mmHg 86%
08:00 +4°C° 0.7 mm 11 mps 744 mmHg 88%
09:00 +4°C° 0.7 mm 11 mps 744 mmHg 91%
10:00 +5°C° 1 mm 9 mps 744 mmHg 91%
11:00 +6°C° 1 mm 7 mps 744 mmHg 91%
12:00 +7°C° 1 mm 4 mps 744 mmHg 91%
13:00 +7°C° 0.2 mm 4 mps 744 mmHg 90%
14:00 +7°C° 0.2 mm 3 mps 744 mmHg 89%
15:00 +7°C° 0.2 mm 2 mps 744 mmHg 88%
16:00 +7°C° 0.1 mm 2 mps 745 mmHg 88%
17:00 +7°C° 0.1 mm 2 mps 745 mmHg 88%
18:00 +7°C° 0.1 mm 2 mps 745 mmHg 87%
19:00 +7°C° 0.1 mm 2 mps 746 mmHg 88%
20:00 +6°C° 0.1 mm 2 mps 746 mmHg 88%
21:00 +6°C° 0.1 mm 2 mps 746 mmHg 89%
22:00 +6°C° 0.1 mm 2 mps 746 mmHg 88%
23:00 +6°C° 0.1 mm 2 mps 746 mmHg 88%

9 December, Wednesday

Time Temperature Precipitation Wind Pressure Humidity
00:00 +6°C° 0.1 mm 2 mps 747 mmHg 87%
01:00 +5°C° 0.5 mm 3 mps 747 mmHg 88%
02:00 +5°C° 0.5 mm 3 mps 747 mmHg 90%
03:00 +5°C° 0.5 mm 3 mps 747 mmHg 91%
04:00 +5°C° 0.8 mm 4 mps 747 mmHg 92%
05:00 +5°C° 0.8 mm 5 mps 747 mmHg 93%
06:00 +5°C° 0.8 mm 5 mps 747 mmHg 94%
07:00 +4°C° 0.6 mm 6 mps 747 mmHg 94%
08:00 +4°C° 0.6 mm 6 mps 747 mmHg 94%
09:00 +4°C° 0.6 mm 7 mps 748 mmHg 94%
10:00 +4°C° 0.5 mm 7 mps 748 mmHg 94%
11:00 +4°C° 0.5 mm 7 mps 748 mmHg 93%
12:00 +4°C° 0.5 mm 7 mps 748 mmHg 92%
13:00 +4°C° 0.4 mm 7 mps 747 mmHg 91%
14:00 +5°C° 0.4 mm 8 mps 747 mmHg 90%
15:00 +5°C° 0.4 mm 8 mps 747 mmHg 89%
16:00 +5°C° 0.1 mm 8 mps 747 mmHg 88%
17:00 +5°C° 0.1 mm 9 mps 747 mmHg 88%
18:00 +5°C° 0.1 mm 9 mps 747 mmHg 88%
19:00 +5°C° 0.3 mm 9 mps 747 mmHg 88%
20:00 +3°C° 0.3 mm 9 mps 747 mmHg 89%
21:00 +3°C° 0.3 mm 9 mps 747 mmHg 90%
22:00 +3°C° 0.2 mm 9 mps 747 mmHg 89%
23:00 +3°C° 0.2 mm 9 mps 747 mmHg 89%
Show more

We Need Your Consent

Meteoprog and our Service Providers may store and access personal data such as cookies, device identifiers or other similar technologies on your device and process such data to personalise content and ads, as well as provide social media features and to analyse the traffic.

  • Store and/or access information on your device

    Cookies, device identifiers or other information can be stored or accessed on your device for the purposes indicated above.

  • Personalised ads and content, ad and content measurement, audience insights, and products development

    Ads and content can be personalised based on a profile. More data can be added to better personalise ads and content. Ad and content performance can be measured. Insights about the audience who saw the ads and content can be derived. Such data can be used to develop or improve user’s experience, systems and software.

By clicking ‘I Agree’ you will allow the use of indicated cookies, device identifiers, web beacons or other similar technologies. Your settings can be changed in the browser on your device.

For certain purposes, legitimate interests may be relied on, rather than consent. You can read more about this in our Privacy and Cookie Policy.